Previsão horária em Abakonovo

Hoje, 17 Abril, Sábado

Tempo Temperatura Precipitação Vento Pressão Humidade
00:00 +8°C° 0 mm 5 m/s 747 mmHg 82%
01:00 +8°C° 0 mm 4 m/s 747 mmHg 84%
02:00 +7°C° 0 mm 4 m/s 747 mmHg 86%
03:00 +7°C° 0 mm 4 m/s 747 mmHg 87%
04:00 +7°C° 0 mm 4 m/s 747 mmHg 87%
05:00 +7°C° 0 mm 4 m/s 747 mmHg 88%
06:00 +7°C° 0 mm 4 m/s 747 mmHg 87%
07:00 +7°C° 0 mm 4 m/s 748 mmHg 86%
08:00 +8°C° 0 mm 4 m/s 748 mmHg 85%
09:00 +9°C° 0 mm 3 m/s 748 mmHg 82%
10:00 +10°C° 0 mm 3 m/s 748 mmHg 80%
11:00 +11°C° 0 mm 3 m/s 748 mmHg 77%
12:00 +11°C° 0 mm 3 m/s 748 mmHg 76%
13:00 +11°C° 0 mm 3 m/s 748 mmHg 75%
14:00 +11°C° 0 mm 4 m/s 748 mmHg 74%
15:00 +12°C° 0 mm 4 m/s 748 mmHg 71%
16:00 +12°C° 0 mm 5 m/s 748 mmHg 68%
17:00 +13°C° 0 mm 5 m/s 747 mmHg 64%
18:00 +12°C° 0 mm 5 m/s 747 mmHg 67%
19:00 +10°C° 0 mm 5 m/s 747 mmHg 69%
20:00 +9°C° 0 mm 5 m/s 747 mmHg 71%
21:00 +8°C° 0 mm 5 m/s 747 mmHg 70%
22:00 +8°C° 0 mm 4 m/s 747 mmHg 70%
23:00 +7°C° 0 mm 4 m/s 747 mmHg 69%

Amanhã, 18 Abril, Domingo

Tempo Temperatura Precipitação Vento Pressão Humidade
00:00 +6°C° 0 mm 4 m/s 747 mmHg 69%
01:00 +6°C° 0 mm 4 m/s 747 mmHg 69%
02:00 +5°C° 0 mm 4 m/s 748 mmHg 69%
03:00 +5°C° 0 mm 4 m/s 748 mmHg 70%
04:00 +4°C° 0 mm 4 m/s 748 mmHg 72%
05:00 +4°C° 0 mm 4 m/s 747 mmHg 74%
06:00 +5°C° 0 mm 4 m/s 748 mmHg 70%
07:00 +6°C° 0 mm 4 m/s 748 mmHg 66%
08:00 +7°C° 0 mm 5 m/s 748 mmHg 62%
09:00 +8°C° 0 mm 5 m/s 748 mmHg 58%
10:00 +9°C° 0 mm 5 m/s 748 mmHg 54%
11:00 +12°C° 0 mm 5 m/s 748 mmHg 50%
12:00 +12°C° 0 mm 5 m/s 748 mmHg 50%
13:00 +12°C° 0 mm 4 m/s 748 mmHg 50%
14:00 +12°C° 0 mm 4 m/s 748 mmHg 50%
15:00 +12°C° 0 mm 4 m/s 748 mmHg 52%
16:00 +12°C° 0 mm 4 m/s 748 mmHg 53%
17:00 +11°C° 0 mm 3 m/s 748 mmHg 55%
18:00 +10°C° 0 mm 3 m/s 749 mmHg 63%
19:00 +8°C° 0 mm 2 m/s 749 mmHg 71%
20:00 +6°C° 0 mm 2 m/s 749 mmHg 79%
21:00 +6°C° 0 mm 2 m/s 749 mmHg 80%
22:00 +6°C° 0 mm 2 m/s 749 mmHg 81%
23:00 +5°C° 0 mm 3 m/s 750 mmHg 82%

Depois de amanhã, 19 Abril, Segunda-feira

Tempo Temperatura Precipitação Vento Pressão Humidade
00:00 +4°C° 0 mm 3 m/s 750 mmHg 84%
01:00 +4°C° 0 mm 3 m/s 750 mmHg 87%
02:00 +3°C° 0 mm 3 m/s 750 mmHg 89%
03:00 +3°C° 0 mm 3 m/s 750 mmHg 88%
04:00 +4°C° 0 mm 3 m/s 750 mmHg 87%
05:00 +4°C° 0 mm 3 m/s 750 mmHg 86%
06:00 +4°C° 0 mm 3 m/s 750 mmHg 82%
07:00 +5°C° 0 mm 3 m/s 750 mmHg 78%
08:00 +6°C° 0 mm 4 m/s 750 mmHg 74%
09:00 +7°C° 0 mm 4 m/s 750 mmHg 70%
10:00 +8°C° 0 mm 4 m/s 750 mmHg 67%
11:00 +10°C° 0 mm 4 m/s 750 mmHg 63%
12:00 +10°C° 0.1 mm 4 m/s 750 mmHg 63%
13:00 +10°C° 0.1 mm 4 m/s 750 mmHg 64%
14:00 +10°C° 0.1 mm 4 m/s 749 mmHg 64%
15:00 +8°C° 0.1 mm 4 m/s 749 mmHg 67%
16:00 +8°C° 0.1 mm 4 m/s 749 mmHg 70%
17:00 +7°C° 0.1 mm 4 m/s 749 mmHg 72%
18:00 +7°C° 0 mm 4 m/s 749 mmHg 76%
19:00 +6°C° 0 mm 4 m/s 749 mmHg 80%
20:00 +5°C° 0 mm 3 m/s 749 mmHg 84%
21:00 +5°C° 0 mm 4 m/s 749 mmHg 84%
22:00 +5°C° 0 mm 4 m/s 748 mmHg 83%
23:00 +5°C° 0 mm 4 m/s 748 mmHg 83%

20 Abril, Terça-feira

Tempo Temperatura Precipitação Vento Pressão Humidade
00:00 +4°C° 0 mm 4 m/s 748 mmHg 85%
01:00 +4°C° 0 mm 4 m/s 747 mmHg 86%
02:00 +4°C° 0 mm 4 m/s 747 mmHg 88%
03:00 +4°C° 0 mm 4 m/s 747 mmHg 88%
04:00 +4°C° 0 mm 4 m/s 746 mmHg 87%
05:00 +3°C° 0 mm 4 m/s 746 mmHg 87%
06:00 +4°C° 0 mm 4 m/s 746 mmHg 81%
07:00 +4°C° 0 mm 4 m/s 746 mmHg 74%
08:00 +3°C° 0 mm 5 m/s 745 mmHg 68%
09:00 +5°C° 0 mm 5 m/s 745 mmHg 70%
10:00 +5°C° 0 mm 5 m/s 745 mmHg 71%
11:00 +5°C° 0 mm 5 m/s 744 mmHg 73%
12:00 +5°C° 0.1 mm 5 m/s 744 mmHg 79%
13:00 +4°C° 0.1 mm 4 m/s 743 mmHg 84%
14:00 +4°C° 0.1 mm 4 m/s 742 mmHg 90%
15:00 +3°C° 0.6 mm 4 m/s 742 mmHg 92%
16:00 +3°C° 0.6 mm 4 m/s 741 mmHg 94%
17:00 +1°C° 0.6 mm 4 m/s 740 mmHg 96%
18:00 +1°C° 1.1 mm 5 m/s 739 mmHg 96%
19:00 +1°C° 1.1 mm 5 m/s 738 mmHg 96%
20:00 +1°C° 1.1 mm 5 m/s 737 mmHg 96%
21:00 +1°C° 2.1 mm 5 m/s 735 mmHg 96%
22:00 +1°C° 2.1 mm 5 m/s 734 mmHg 96%
23:00 +1°C° 2.1 mm 5 m/s 733 mmHg 97%

21 Abril, Quarta-feira

Tempo Temperatura Precipitação Vento Pressão Humidade
00:00 +1°C° 1.1 mm 5 m/s 732 mmHg 96%
01:00 +2°C° 1.1 mm 5 m/s 731 mmHg 96%
02:00 +2°C° 1.1 mm 5 m/s 730 mmHg 95%
03:00 +3°C° 0.1 mm 5 m/s 729 mmHg 96%
04:00 +4°C° 0.1 mm 4 m/s 728 mmHg 96%
05:00 +4°C° 0.1 mm 4 m/s 728 mmHg 96%
06:00 +5°C° 0.1 mm 4 m/s 727 mmHg 95%
07:00 +5°C° 0.1 mm 4 m/s 727 mmHg 95%
08:00 +6°C° 0.1 mm 4 m/s 727 mmHg 95%
09:00 +7°C° 0.8 mm 3 m/s 727 mmHg 95%
10:00 +5°C° 0.8 mm 3 m/s 726 mmHg 96%
11:00 +5°C° 0.8 mm 3 m/s 726 mmHg 96%
12:00 +5°C° 0.8 mm 2 m/s 727 mmHg 96%
13:00 +4°C° 0.8 mm 2 m/s 727 mmHg 97%
14:00 +4°C° 0.8 mm 1 m/s 728 mmHg 98%
15:00 +2°C° 0.5 mm 3 m/s 729 mmHg 97%
16:00 +1°C° 0.5 mm 4 m/s 729 mmHg 97%
17:00 +1°C° 0.5 mm 5 m/s 730 mmHg 96%
18:00 +1°C° 0.4 mm 5 m/s 731 mmHg 97%
19:00 +1°C° 0.4 mm 5 m/s 732 mmHg 97%
20:00 0°C° 0.4 mm 4 m/s 734 mmHg 97%
21:00 +1°C° 0.2 mm 4 m/s 734 mmHg 97%
22:00 +1°C° 0.2 mm 4 m/s 735 mmHg 97%
23:00 +1°C° 0.2 mm 4 m/s 736 mmHg 97%

22 Abril, Quinta-feira

Tempo Temperatura Precipitação Vento Pressão Humidade
00:00 +1°C° 0.2 mm 4 m/s 736 mmHg 96%
01:00 +1°C° 0.2 mm 4 m/s 737 mmHg 95%
02:00 +1°C° 0.2 mm 4 m/s 737 mmHg 95%
03:00 +1°C° 0 mm 4 m/s 738 mmHg 94%
04:00 +1°C° 0 mm 4 m/s 738 mmHg 93%
05:00 +2°C° 0 mm 3 m/s 739 mmHg 93%
06:00 +3°C° 0 mm 3 m/s 740 mmHg 89%
07:00 +4°C° 0 mm 3 m/s 740 mmHg 86%
08:00 +4°C° 0 mm 3 m/s 741 mmHg 82%
09:00 +5°C° 0.1 mm 4 m/s 741 mmHg 79%
10:00 +6°C° 0.1 mm 4 m/s 742 mmHg 75%
11:00 +7°C° 0.1 mm 4 m/s 742 mmHg 71%
12:00 +8°C° 0 mm 4 m/s 743 mmHg 66%
13:00 +10°C° 0 mm 4 m/s 743 mmHg 61%
14:00 +10°C° 0 mm 4 m/s 744 mmHg 57%
15:00 +10°C° 0 mm 4 m/s 744 mmHg 59%
16:00 +10°C° 0 mm 3 m/s 744 mmHg 62%
17:00 +10°C° 0 mm 3 m/s 745 mmHg 64%
18:00 +9°C° 0 mm 3 m/s 745 mmHg 71%
19:00 +7°C° 0 mm 2 m/s 746 mmHg 79%
20:00 +6°C° 0 mm 2 m/s 746 mmHg 86%
21:00 +5°C° 0 mm 2 m/s 747 mmHg 88%
22:00 +6°C° 0 mm 1 m/s 747 mmHg 89%
23:00 +5°C° 0 mm 1 m/s 747 mmHg 91%
Mostrar mais

Necessitamos do seu Consentimento

A Meteoprog e os seus Fornecedores de Serviços podem armazenar e aceder a dados pessoais como cookies, identificadores do dispositivo ou outras tecnologias semelhantes existentes no seu dispositivo e processar estes dados para personalizar conteúdos e anúncios, assim como funcionalidades nas redes sociais e análise de tráfego.

  • Armazenar e/ou aceder a informações no seu dispositivo

    Os cookies, identificadores do dispositivo ou outras informações podem ser armazenados ou acedidos no seu dispositivo, para os fins acima indicados.

  • Anúncios e conteúdos personalizados, medição de anúncios e conteúdos, dados sobre o público-alvo e desenvolvimento de produtos

    Os anúncios e os conteúdos podem ser personalizados com base num perfil. Podem ser adicionados dados adicionais para uma maior personalização dos anúncios e dos conteúdos. A eficácia dos anúncios e dos conteúdos pode ser medida. Podem ser obtidas informações sobre o público que visualizou os anúncios e os conteúdos. Estes dados podem ser usados para desenvolver ou melhorar sistemas, softwares ou a experiência do utilizador.

Ao clicar em "Eu concordo”, permitirá o uso de cookies, identificadores do dispositivo e web beacons mencionados ou outras tecnologias semelhantes. As configurações do navegador do seu dispositivo podem ser alteradas.

Para certos fins, podem ser invocados interesses legítimos ao invés de consentimento. Pode ler mais informação sobre este assunto na nossa Política de Privacidade e Cookies.